STARLINK-32657 (62475 NORAD) Tracking and Keplerian Element Data

This shows tracking and keplerian element data for the satellite.

Feedback or suggestion? Click here.




ElementValue
Catalog62475
NameSTARLINK-32657
Epoch Orbit637
Epoch Day34.27512583
Epoch Year2025
RAAN115.8642
Inclination43.0006
Eccentricity0.000266
Argument of Perigee285.0708
Mean Anonmoly74.9854
Mean Motion15.40713968
Decay Rate-5.223E-05
L11 62475U 24254P 25034.27512583 -.00005223 00000+0 -11778-3 0 9998
L22 62475 43.0006 115.8642 0002660 285.0708 74.9854 15.40713968 6377



Live tracking and technical data element details for STARLINK-32657 (NORAD 62475). STARLINK-32657 can be tracked NOW for your location showing map with azimuth and elevation plus other details from your city location.







IsCatalogInMostPopularTable: catalog: 62475, numindb: 12
Update: records affected: 1



GetName: 62475 STARLINK-32657

Hit Count: updated at: Sun, 18 May 2025 23:36:44 GMT